Weather in Aynskoye

Russia / Sakhalin District     48°34′03″N   142°11′35″E
temp.,
°C
wind,
m/s
gust,
m/s
humid.,
%
clouds,
%
prec.,
mm/h
press.,
hPa
HPBL,
m
20 september, mon
mon2023:00+6ese11763 0.0 101418
02:00+6se11842 0.0 101413
05:00+6sw11900 0.0 101418
08:00+7sse01863 0.0 101520
11:00+13wnw47524 0.0 10141505
14:00+14wnw56475 0.0 10151639
17:00+14w48460 0.0 10151090
20:00+8sw25800 0.0 101791
21 september, tue
tue2123:00+9ssw25905 0.0 1016154
02:00+9sw1193100 0.0 101512
05:00+8se1192100 0.0 101613
08:00+9ese1186100 0.0 101614
11:00+16sw3466100 0.0 1015811
14:00+17sw4665100 0.0 1014993
17:00+15sw4780100 0.1 1013809
20:00+12sw2498100 0.1 1013122
22 september, wed
wed2223:00+11s1195100 0.1 101324
02:00+12s1398100 0.1 1013107
05:00+12ssw1196100 1.0 101331
08:00+11ene2398100 2.8 1013110
11:00+10ene51395100 6.6 1013610
14:00+10ene61495100 5.2 1012689
17:00+10ene71495100 7.2 1012741
20:00+9ene71493100 0.2 1013757
23 september, thu
thu2323:00+9ene71491100 0.3 1013823
02:00+8ne51494100 0.8 1014696
05:00+7ne51492100 1.2 1014634
08:00+8ne41390100 0.1 1015629
11:00+8ne51388100 0.3 1016726
14:00+8ne51290100 0.6 1017748
17:00+8ne31090100 1.1 1018574
20:00+9ne3990100 0.0 1020486
24 september, fri
fri2423:00+9ne388989 0.0 1020402
02:00+7ne259284 0.0 1021217
05:00+6ne249757 0.0 1022107
08:00+5ne239578 0.0 102461
11:00+12ene476578 0.0 10241073
14:00+14ene455675 0.1 10251467
17:00+13ene456429 0.2 10251159
20:00+8ene229495 0.1 102732